Retour au catalogue

STARLINK-5226

ActifCommunicationsVLEO
NORAD 54056·PAYLOAD·🇺🇸 United States

Lancé Oct 20, 2022 depuis Cape Canaveral Space Force Station

Loading…

Prochains Passages (prochaines 24 heures)

TLE

FraisSource: CelesTrak SupGP

Époque: Sep 14, 2026, 21:01 UTC

1 54056C 22136F   26257.87618056 -.00004307  00000+0 -12319-3 0  2578
2 54056  53.1584 205.8122 0001250  94.9050 290.8380 15.35409621    10

Suivez STARLINK-5226 en temps réel avec AllMySat

Download on the App Store